• în Republica Moldova
  • Lista ţărilor
  • Pe 7 zile
  • Temperatura apei
  • Hartă satelitară
  • Meteo pe hartă
  • Widget-uri
  • user-avatar
    Intrare

    Meteo pe oră la Djelfa

    Astăzi, 10 Decembrie, Luni

    Timp Temperatura Precipitaţii Vânt Presiune Umiditate
    00:00 +8°C° 0 mm 2 m/s 670 mmHg 49%
    01:00 +8°C° 0 mm 2 m/s 669 mmHg 50%
    02:00 +8°C° 0 mm 2 m/s 669 mmHg 52%
    03:00 +7°C° 0 mm 2 m/s 669 mmHg 53%
    04:00 +7°C° 0 mm 2 m/s 669 mmHg 55%
    05:00 +7°C° 0 mm 2 m/s 669 mmHg 57%
    06:00 +6°C° 0 mm 2 m/s 669 mmHg 59%
    07:00 +8°C° 0 mm 2 m/s 669 mmHg 53%
    08:00 +10°C° 0 mm 2 m/s 670 mmHg 48%
    09:00 +12°C° 0 mm 1 m/s 671 mmHg 42%
    10:00 +13°C° 0 mm 2 m/s 671 mmHg 37%
    11:00 +15°C° 0 mm 2 m/s 671 mmHg 32%
    12:00 +16°C° 0 mm 2 m/s 671 mmHg 27%
    13:00 +16°C° 0 mm 2 m/s 671 mmHg 26%
    14:00 +16°C° 0 mm 2 m/s 670 mmHg 26%
    15:00 +16°C° 0 mm 2 m/s 670 mmHg 25%
    16:00 +14°C° 0 mm 2 m/s 670 mmHg 30%
    17:00 +13°C° 0 mm 2 m/s 669 mmHg 36%
    18:00 +11°C° 0 mm 1 m/s 669 mmHg 41%
    19:00 +10°C° 0 mm 1 m/s 669 mmHg 43%
    20:00 +10°C° 0 mm 1 m/s 668 mmHg 44%
    21:00 +9°C° 0 mm 1 m/s 668 mmHg 45%
    22:00 +9°C° 0 mm 1 m/s 668 mmHg 45%
    23:00 +8°C° 0 mm 1 m/s 668 mmHg 44%

    Mâine, 11 Decembrie, Marţi

    Timp Temperatura Precipitaţii Vânt Presiune Umiditate
    00:00 +8°C° 0 mm 1 m/s 667 mmHg 44%
    01:00 +8°C° 0 mm 1 m/s 667 mmHg 43%
    02:00 +7°C° 0 mm 1 m/s 667 mmHg 43%
    03:00 +7°C° 0 mm 1 m/s 666 mmHg 42%
    04:00 +7°C° 0 mm 1 m/s 666 mmHg 42%
    05:00 +7°C° 0 mm 1 m/s 666 mmHg 42%
    06:00 +7°C° 0 mm 1 m/s 666 mmHg 42%
    07:00 +9°C° 0 mm 1 m/s 667 mmHg 39%
    08:00 +9°C° 0 mm 2 m/s 668 mmHg 36%
    09:00 +12°C° 0 mm 2 m/s 668 mmHg 34%
    10:00 +13°C° 0 mm 2 m/s 668 mmHg 33%
    11:00 +14°C° 0 mm 3 m/s 668 mmHg 31%
    12:00 +16°C° 0 mm 3 m/s 668 mmHg 30%
    13:00 +16°C° 0 mm 3 m/s 668 mmHg 29%
    14:00 +16°C° 0 mm 3 m/s 668 mmHg 29%
    15:00 +16°C° 0 mm 3 m/s 667 mmHg 28%
    16:00 +14°C° 0 mm 3 m/s 667 mmHg 33%
    17:00 +13°C° 0 mm 2 m/s 667 mmHg 38%
    18:00 +10°C° 0 mm 2 m/s 666 mmHg 43%
    19:00 +11°C° 0 mm 1 m/s 666 mmHg 44%
    20:00 +10°C° 0 mm 1 m/s 666 mmHg 46%
    21:00 +10°C° 0 mm 1 m/s 666 mmHg 47%
    22:00 +9°C° 0 mm 1 m/s 666 mmHg 48%
    23:00 +9°C° 0 mm 1 m/s 666 mmHg 49%

    Poimâine, 12 Decembrie, Miercuri

    Timp Temperatura Precipitaţii Vânt Presiune Umiditate
    00:00 +8°C° 0 mm 2 m/s 666 mmHg 51%
    01:00 +7°C° 0 mm 2 m/s 666 mmHg 52%
    02:00 +7°C° 0 mm 2 m/s 666 mmHg 54%
    03:00 +7°C° 0 mm 2 m/s 665 mmHg 55%
    04:00 +7°C° 0 mm 2 m/s 666 mmHg 56%
    05:00 +6°C° 0 mm 2 m/s 666 mmHg 58%
    06:00 +6°C° 0 mm 2 m/s 666 mmHg 59%
    07:00 +7°C° 0 mm 2 m/s 666 mmHg 56%
    08:00 +9°C° 0 mm 3 m/s 667 mmHg 52%
    09:00 +10°C° 0 mm 3 m/s 667 mmHg 49%
    10:00 +11°C° 0 mm 3 m/s 667 mmHg 45%
    11:00 +12°C° 0 mm 3 m/s 667 mmHg 40%
    12:00 +14°C° 0 mm 3 m/s 667 mmHg 36%
    13:00 +14°C° 0 mm 3 m/s 667 mmHg 35%
    14:00 +14°C° 0 mm 3 m/s 667 mmHg 34%
    15:00 +14°C° 0 mm 3 m/s 666 mmHg 33%
    16:00 +14°C° 0 mm 2 m/s 666 mmHg 38%
    17:00 +12°C° 0 mm 2 m/s 666 mmHg 43%
    18:00 +10°C° 0 mm 2 m/s 666 mmHg 48%
    19:00 +10°C° 0 mm 1 m/s 666 mmHg 50%
    20:00 +10°C° 0 mm 1 m/s 666 mmHg 51%
    21:00 +9°C° 0 mm 1 m/s 666 mmHg 53%
    22:00 +9°C° 0 mm 1 m/s 665 mmHg 54%
    23:00 +8°C° 0 mm 1 m/s 665 mmHg 55%

    13 Decembrie, Joi

    Timp Temperatura Precipitaţii Vânt Presiune Umiditate
    00:00 +7°C° 0 mm 2 m/s 665 mmHg 56%
    01:00 +7°C° 0 mm 2 m/s 665 mmHg 56%
    02:00 +7°C° 0 mm 2 m/s 665 mmHg 56%
    03:00 +7°C° 0 mm 2 m/s 664 mmHg 56%
    04:00 +6°C° 0 mm 2 m/s 664 mmHg 55%
    05:00 +5°C° 0 mm 3 m/s 664 mmHg 55%
    06:00 +5°C° 0 mm 3 m/s 664 mmHg 54%
    07:00 +7°C° 0 mm 3 m/s 665 mmHg 49%
    08:00 +9°C° 0 mm 3 m/s 665 mmHg 44%
    09:00 +10°C° 0 mm 4 m/s 666 mmHg 39%
    10:00 +10°C° 0 mm 5 m/s 666 mmHg 35%
    11:00 +13°C° 0 mm 5 m/s 666 mmHg 31%
    12:00 +14°C° 0 mm 6 m/s 666 mmHg 27%
    13:00 +14°C° 0 mm 6 m/s 666 mmHg 28%
    14:00 +14°C° 0 mm 6 m/s 665 mmHg 29%
    15:00 +13°C° 0 mm 6 m/s 665 mmHg 31%
    16:00 +11°C° 0 mm 6 m/s 665 mmHg 37%
    17:00 +10°C° 0 mm 6 m/s 665 mmHg 43%
    18:00 +9°C° 0 mm 6 m/s 665 mmHg 50%
    19:00 +8°C° 0 mm 6 m/s 665 mmHg 58%
    20:00 +8°C° 0 mm 6 m/s 665 mmHg 66%
    21:00 +7°C° 0 mm 6 m/s 666 mmHg 73%
    22:00 +6°C° 0 mm 7 m/s 665 mmHg 74%
    23:00 +6°C° 0 mm 7 m/s 665 mmHg 75%

    14 Decembrie, Vineri

    Timp Temperatura Precipitaţii Vânt Presiune Umiditate
    00:00 +6°C° 0 mm 7 m/s 665 mmHg 76%
    01:00 +6°C° 0 mm 8 m/s 665 mmHg 79%
    02:00 +6°C° 0 mm 8 m/s 665 mmHg 82%
    03:00 +6°C° 0 mm 8 m/s 665 mmHg 85%
    04:00 +6°C° 0 mm 9 m/s 665 mmHg 85%
    05:00 +6°C° 0 mm 9 m/s 665 mmHg 85%
    06:00 +6°C° 0 mm 9 m/s 665 mmHg 84%
    07:00 +7°C° 0 mm 10 m/s 666 mmHg 82%
    08:00 +7°C° 0 mm 10 m/s 666 mmHg 79%
    09:00 +8°C° 0 mm 10 m/s 667 mmHg 77%
    10:00 +8°C° 0 mm 10 m/s 667 mmHg 73%
    11:00 +9°C° 0 mm 10 m/s 667 mmHg 70%
    12:00 +10°C° 0 mm 9 m/s 667 mmHg 66%
    13:00 +9°C° 0 mm 10 m/s 667 mmHg 65%
    14:00 +9°C° 0 mm 10 m/s 667 mmHg 63%
    15:00 +9°C° 0 mm 11 m/s 667 mmHg 61%
    16:00 +8°C° 0 mm 10 m/s 667 mmHg 66%
    17:00 +7°C° 0 mm 9 m/s 667 mmHg 70%
    18:00 +7°C° 0 mm 9 m/s 667 mmHg 74%
    19:00 +6°C° 0 mm 9 m/s 668 mmHg 77%
    20:00 +6°C° 0 mm 8 m/s 668 mmHg 80%
    21:00 +5°C° 0 mm 8 m/s 668 mmHg 83%
    22:00 +5°C° 0 mm 8 m/s 668 mmHg 82%
    23:00 +5°C° 0 mm 8 m/s 668 mmHg 82%

    15 Decembrie, Sâmbătă

    Timp Temperatura Precipitaţii Vânt Presiune Umiditate
    00:00 +5°C° 0 mm 8 m/s 668 mmHg 81%
    01:00 +4°C° 0 mm 7 m/s 668 mmHg 81%
    02:00 +4°C° 0 mm 7 m/s 668 mmHg 80%
    03:00 +4°C° 0 mm 7 m/s 668 mmHg 79%
    04:00 +4°C° 0 mm 7 m/s 668 mmHg 79%
    05:00 +4°C° 0 mm 7 m/s 668 mmHg 78%
    06:00 +4°C° 0 mm 6 m/s 668 mmHg 77%
    07:00 +5°C° 0 mm 7 m/s 669 mmHg 72%
    08:00 +6°C° 0 mm 7 m/s 669 mmHg 66%
    09:00 +9°C° 0 mm 7 m/s 670 mmHg 60%
    10:00 +10°C° 0 mm 7 m/s 670 mmHg 54%
    11:00 +12°C° 0 mm 7 m/s 670 mmHg 49%
    12:00 +14°C° 0 mm 7 m/s 670 mmHg 43%
    13:00 +14°C° 0 mm 7 m/s 670 mmHg 43%
    14:00 +14°C° 0 mm 6 m/s 670 mmHg 42%
    15:00 +14°C° 0 mm 6 m/s 670 mmHg 41%
    16:00 +13°C° 0 mm 5 m/s 669 mmHg 47%
    17:00 +12°C° 0 mm 4 m/s 669 mmHg 54%
    18:00 +10°C° 0 mm 3 m/s 669 mmHg 60%
    19:00 +10°C° 0 mm 3 m/s 669 mmHg 61%
    20:00 +9°C° 0 mm 3 m/s 670 mmHg 62%
    21:00 +9°C° 0 mm 2 m/s 670 mmHg 64%
    22:00 +9°C° 0 mm 2 m/s 670 mmHg 64%
    23:00 +9°C° 0 mm 2 m/s 670 mmHg 65%
    Arată mai mult